contact:dominique.lefevre@mio.osupytheas.fr, maurice.libes@osupytheas.fr, didier.mallarino@osupytheas.fr
Project:EMSO http://www.emso-fr.org/EMSO-France
Depth: 2436.0 m
Title:EMSO Ligure Ouest : Data MII capteur CSTAR
DateTime,Latitude,Longitude,Instrument_Serial,Reference_Counts,Signal_Counts,Corrected_Signal_raw_counts,Calculated_Beam_c_inverse_meters,Internal_thermistor_counts
DateTime,Latitude,Longitude,Instrument_Serial,Reference_Counts,Signal_Counts,Corrected_Signal_raw_counts,Calculated_Beam_c_inverse_meters,Internal_thermistor_counts
2023-06-29T00:02:13,42.805,6.029,CST-1368DR,4275,4766,11832,01.110,552
2023-06-29T00:05:14,42.805,6.029,CST-1368DR,4275,4766,11832,01.110,552
2023-06-29T00:08:16,42.805,6.029,CST-1368DR,4274,4766,11835,01.109,552
2023-06-29T00:11:18,42.805,6.029,CST-1368DR,4275,4766,11832,01.110,552
2023-06-29T00:14:19,42.805,6.029,CST-1368DR,4275,4764,11829,01.111,552
2023-06-29T00:17:21,42.805,6.029,CST-1368DR,4274,4766,11835,01.109,552
2023-06-29T00:20:22,42.805,6.029,CST-1368DR,4274,4764,11832,01.110,552
2023-06-29T00:23:24,42.805,6.029,CST-1368DR,4274,4765,11834,01.109,552
2023-06-29T00:26:25,42.805,6.029,CST-1368DR,4274,4765,11833,01.110,552
2023-06-29T00:29:27,42.805,6.029,CST-1368DR,4274,4765,11834,01.109,552
2023-06-29T00:32:29,42.805,6.029,CST-1368DR,4274,4763,11827,01.112,552
2023-06-29T00:35:30,42.805,6.029,CST-1368DR,4274,4765,11832,01.110,552
2023-06-29T00:38:32,42.805,6.029,CST-1368DR,4275,4766,11832,01.110,552
2023-06-29T00:41:33,42.805,6.029,CST-1368DR,4274,4765,11834,01.109,552
2023-06-29T00:44:35,42.805,6.029,CST-1368DR,4274,4765,11833,01.110,552
2023-06-29T00:47:37,42.805,6.029,CST-1368DR,4274,4766,11836,01.109,552
2023-06-29T00:50:38,42.805,6.029,CST-1368DR,4274,4766,11835,01.109,552
2023-06-29T00:53:40,42.805,6.029,CST-1368DR,4275,4766,11833,01.110,552
2023-06-29T00:56:41,42.805,6.029,CST-1368DR,4274,4766,11835,01.109,552
2023-06-29T00:59:43,42.805,6.029,CST-1368DR,4274,4765,11832,01.110,552
2023-06-29T01:02:44,42.805,6.029,CST-1368DR,4274,4767,11837,01.108,552
2023-06-29T01:05:46,42.805,6.029,CST-1368DR,4274,4766,11837,01.108,552
2023-06-29T01:08:48,42.805,6.029,CST-1368DR,4274,4764,11832,01.110,552
2023-06-29T01:11:49,42.805,6.029,CST-1368DR,4275,4766,11832,01.110,552
2023-06-29T01:14:51,42.805,6.029,CST-1368DR,4274,4766,11835,01.109,552
2023-06-29T01:17:52,42.805,6.029,CST-1368DR,4274,4766,11835,01.109,552
2023-06-29T01:20:54,42.805,6.029,CST-1368DR,4274,4769,11843,01.106,552
2023-06-29T01:23:55,42.805,6.029,CST-1368DR,4275,4767,11836,01.109,552
2023-06-29T01:26:57,42.805,6.029,CST-1368DR,4274,4768,11841,01.107,552
2023-06-29T01:29:59,42.805,6.029,CST-1368DR,4275,4769,11840,01.107,552
2023-06-29T01:33:00,42.805,6.029,CST-1368DR,4275,4769,11840,01.107,552
2023-06-29T01:36:02,42.805,6.029,CST-1368DR,4275,4769,11840,01.107,552
2023-06-29T01:39:03,42.805,6.029,CST-1368DR,4275,4768,11837,01.108,552
2023-06-29T01:42:05,42.805,6.029,CST-1368DR,4274,4769,11843,01.106,552
2023-06-29T01:45:07,42.805,6.029,CST-1368DR,4275,4768,11838,01.108,552
2023-06-29T01:48:08,42.805,6.029,CST-1368DR,4274,4769,11843,01.106,552
2023-06-29T01:51:10,42.805,6.029,CST-1368DR,4274,4768,11840,01.107,552
2023-06-29T01:54:11,42.805,6.029,CST-1368DR,4274,4768,11840,01.107,552
2023-06-29T01:57:13,42.805,6.029,CST-1368DR,4274,4768,11841,01.107,552
2023-06-29T02:00:14,42.805,6.029,CST-1368DR,4274,4769,11843,01.106,552
2023-06-29T02:03:16,42.805,6.029,CST-1368DR,4274,4768,11840,01.107,552
2023-06-29T02:06:18,42.805,6.029,CST-1368DR,4274,4768,11840,01.107,552
2023-06-29T02:09:19,42.805,6.029,CST-1368DR,4274,4768,11841,01.107,552
2023-06-29T02:12:21,42.805,6.029,CST-1368DR,4274,4768,11840,01.107,552
2023-06-29T02:15:22,42.805,6.029,CST-1368DR,4274,4769,11842,01.107,552
2023-06-29T02:18:24,42.805,6.029,CST-1368DR,4274,4768,11841,01.107,552
2023-06-29T02:21:25,42.805,6.029,CST-1368DR,4274,4767,11837,01.108,552
2023-06-29T02:24:27,42.805,6.029,CST-1368DR,4274,4768,11840,01.107,552
2023-06-29T02:27:29,42.805,6.029,CST-1368DR,4274,4768,11841,01.107,552
2023-06-29T02:30:30,42.805,6.029,CST-1368DR,4274,4767,11838,01.108,552
2023-06-29T02:33:32,42.805,6.029,CST-1368DR,4274,4767,11837,01.108,552
2023-06-29T02:36:33,42.805,6.029,CST-1368DR,4274,4768,11841,01.107,552
2023-06-29T02:39:35,42.805,6.029,CST-1368DR,4274,4769,11843,01.106,552
2023-06-29T02:42:36,42.805,6.029,CST-1368DR,4274,4769,11843,01.106,552
2023-06-29T02:45:38,42.805,6.029,CST-1368DR,4274,4768,11840,01.107,552
2023-06-29T02:48:40,42.805,6.029,CST-1368DR,4274,4768,11841,01.107,552
2023-06-29T02:51:41,42.805,6.029,CST-1368DR,4274,4767,11837,01.108,552
2023-06-29T02:54:43,42.805,6.029,CST-1368DR,4274,4768,11840,01.107,552
2023-06-29T02:57:44,42.805,6.029,CST-1368DR,4274,4768,11841,01.107,552
2023-06-29T03:00:46,42.805,6.029,CST-1368DR,4274,4768,11841,01.107,552
2023-06-29T03:03:48,42.805,6.029,CST-1368DR,4274,4769,11842,01.107,552
2023-06-29T03:06:49,42.805,6.029,CST-1368DR,4274,4768,11841,01.107,552
2023-06-29T03:09:51,42.805,6.029,CST-1368DR,4274,4768,11840,01.107,552
2023-06-29T03:20:06,42.805,6.029,CST-1368DR,4274,4767,11838,01.108,552
2023-06-29T03:23:08,42.805,6.029,CST-1368DR,4274,4767,11839,01.108,552
2023-06-29T03:26:10,42.805,6.029,CST-1368DR,4274,4767,11839,01.108,552
2023-06-29T03:29:11,42.805,6.029,CST-1368DR,4274,4767,11837,01.108,552
2023-06-29T03:32:13,42.805,6.029,CST-1368DR,4274,4767,11838,01.108,552
2023-06-29T03:35:14,42.805,6.029,CST-1368DR,4274,4768,11841,01.107,552
2023-06-29T03:38:16,42.805,6.029,CST-1368DR,4274,4768,11840,01.107,552
2023-06-29T03:41:18,42.805,6.029,CST-1368DR,4274,4769,11842,01.107,552
2023-06-29T03:44:19,42.805,6.029,CST-1368DR,4274,4767,11837,01.108,552
2023-06-29T03:47:21,42.805,6.029,CST-1368DR,4274,4767,11839,01.108,552
2023-06-29T03:50:22,42.805,6.029,CST-1368DR,4274,4768,11840,01.107,552
2023-06-29T03:53:24,42.805,6.029,CST-1368DR,4274,4766,11835,01.109,552
2023-06-29T03:56:25,42.805,6.029,CST-1368DR,4274,4766,11837,01.108,552
2023-06-29T03:59:27,42.805,6.029,CST-1368DR,4274,4767,11837,01.108,552
2023-06-29T04:02:29,42.805,6.029,CST-1368DR,4274,4766,11837,01.108,552
2023-06-29T04:05:30,42.805,6.029,CST-1368DR,4274,4766,11836,01.109,552
2023-06-29T04:08:32,42.805,6.029,CST-1368DR,4274,4768,11840,01.107,552
2023-06-29T04:11:33,42.805,6.029,CST-1368DR,4274,4769,11842,01.107,552
2023-06-29T04:14:35,42.805,6.029,CST-1368DR,4274,4766,11835,01.109,552
2023-06-29T04:17:36,42.805,6.029,CST-1368DR,4274,4768,11840,01.107,552
2023-06-29T04:20:38,42.805,6.029,CST-1368DR,4274,4768,11841,01.107,552
2023-06-29T04:23:40,42.805,6.029,CST-1368DR,4274,4766,11837,01.108,552
2023-06-29T04:26:41,42.805,6.029,CST-1368DR,4274,4767,11838,01.108,552
2023-06-29T04:29:43,42.805,6.029,CST-1368DR,4274,4765,11834,01.109,552
2023-06-29T04:32:44,42.805,6.029,CST-1368DR,4274,4768,11840,01.107,552
2023-06-29T04:35:46,42.805,6.029,CST-1368DR,4274,4766,11835,01.109,552
2023-06-29T04:38:48,42.805,6.029,CST-1368DR,4274,4768,11840,01.107,552
2023-06-29T04:41:49,42.805,6.029,CST-1368DR,4274,4768,11840,01.107,552
2023-06-29T04:44:51,42.805,6.029,CST-1368DR,4274,4766,11836,01.109,552
2023-06-29T04:47:52,42.805,6.029,CST-1368DR,4274,4767,11838,01.108,552
2023-06-29T04:50:54,42.805,6.029,CST-1368DR,4274,4767,11838,01.108,552
2023-06-29T04:53:55,42.805,6.029,CST-1368DR,4274,4766,11836,01.109,552
2023-06-29T04:56:57,42.805,6.029,CST-1368DR,4274,4767,11838,01.108,552
2023-06-29T04:59:59,42.805,6.029,CST-1368DR,4274,4766,11836,01.109,552
2023-06-29T05:03:00,42.805,6.029,CST-1368DR,4274,4767,11838,01.108,552
2023-06-29T05:06:02,42.805,6.029,CST-1368DR,4274,4766,11837,01.108,552
2023-06-29T05:09:03,42.805,6.029,CST-1368DR,4274,4767,11839,01.108,552
2023-06-29T05:12:05,42.805,6.029,CST-1368DR,4274,4767,11839,01.108,552
2023-06-29T05:15:06,42.805,6.029,CST-1368DR,4274,4767,11837,01.108,552
2023-06-29T05:18:08,42.805,6.029,CST-1368DR,4274,4767,11838,01.108,552
2023-06-29T05:21:10,42.805,6.029,CST-1368DR,4274,4768,11840,01.107,552
2023-06-29T05:24:11,42.805,6.029,CST-1368DR,4274,4767,11838,01.108,552
2023-06-29T05:27:13,42.805,6.029,CST-1368DR,4274,4768,11840,01.107,552
2023-06-29T05:30:14,42.805,6.029,CST-1368DR,4274,4767,11837,01.108,552
2023-06-29T05:33:16,42.805,6.029,CST-1368DR,4274,4767,11838,01.108,552
2023-06-29T05:36:18,42.805,6.029,CST-1368DR,4274,4767,11838,01.108,552
2023-06-29T05:39:19,42.805,6.029,CST-1368DR,4274,4767,11837,01.108,552
2023-06-29T05:42:21,42.805,6.029,CST-1368DR,4274,4767,11838,01.108,552
2023-06-29T05:45:22,42.805,6.029,CST-1368DR,4274,4768,11840,01.107,552
2023-06-29T05:48:24,42.805,6.029,CST-1368DR,4274,4767,11838,01.108,552
2023-06-29T05:51:25,42.805,6.029,CST-1368DR,4274,4768,11840,01.107,552
2023-06-29T05:54:27,42.805,6.029,CST-1368DR,4274,4768,11840,01.107,552
2023-06-29T05:57:29,42.805,6.029,CST-1368DR,4274,4767,11838,01.108,552
2023-06-29T06:00:30,42.805,6.029,CST-1368DR,4274,4767,11837,01.108,552
2023-06-29T06:03:32,42.805,6.029,CST-1368DR,4274,4768,11840,01.107,552
2023-06-29T06:06:33,42.805,6.029,CST-1368DR,4274,4767,11838,01.108,552
2023-06-29T06:09:35,42.805,6.029,CST-1368DR,4274,4768,11840,01.107,552
2023-06-29T06:12:36,42.805,6.029,CST-1368DR,4274,4767,11839,01.108,552
2023-06-29T06:15:38,42.805,6.029,CST-1368DR,4274,4767,11838,01.108,552
2023-06-29T06:18:40,42.805,6.029,CST-1368DR,4274,4766,11837,01.108,552
2023-06-29T06:21:41,42.805,6.029,CST-1368DR,4274,4766,11837,01.108,552
2023-06-29T06:24:43,42.805,6.029,CST-1368DR,4274,4767,11838,01.108,552
2023-06-29T06:27:44,42.805,6.029,CST-1368DR,4274,4767,11837,01.108,552
2023-06-29T06:30:46,42.805,6.029,CST-1368DR,4274,4767,11838,01.108,552
2023-06-29T06:33:48,42.805,6.029,CST-1368DR,4274,4767,11839,01.108,552
2023-06-29T06:36:49,42.805,6.029,CST-1368DR,4274,4768,11840,01.107,552
2023-06-29T06:39:51,42.805,6.029,CST-1368DR,4274,4767,11838,01.108,552
2023-06-29T06:42:52,42.805,6.029,CST-1368DR,4274,4768,11840,01.107,552
2023-06-29T06:45:54,42.805,6.029,CST-1368DR,4274,4766,11836,01.109,552
2023-06-29T06:48:56,42.805,6.029,CST-1368DR,4274,4767,11838,01.108,552
2023-06-29T06:51:57,42.805,6.029,CST-1368DR,4274,4767,11838,01.108,552
2023-06-29T06:54:59,42.805,6.029,CST-1368DR,4274,4767,11837,01.108,552
2023-06-29T06:58:00,42.805,6.029,CST-1368DR,4274,4766,11836,01.109,552
2023-06-29T07:01:02,42.805,6.029,CST-1368DR,4274,4767,11838,01.108,552
2023-06-29T07:04:03,42.805,6.029,CST-1368DR,4274,4767,11837,01.108,552
2023-06-29T07:07:05,42.805,6.029,CST-1368DR,4274,4766,11835,01.109,552
2023-06-29T07:10:07,42.805,6.029,CST-1368DR,4274,4766,11835,01.109,552
2023-06-29T07:13:08,42.805,6.029,CST-1368DR,4274,4766,11837,01.108,552
2023-06-29T07:16:10,42.805,6.029,CST-1368DR,4274,4767,11838,01.108,552
2023-06-29T07:19:11,42.805,6.029,CST-1368DR,4274,4768,11840,01.107,552
2023-06-29T07:22:13,42.805,6.029,CST-1368DR,4274,4768,11841,01.107,552
2023-06-29T07:25:14,42.805,6.029,CST-1368DR,4274,4768,11840,01.107,552
2023-06-29T07:28:16,42.805,6.029,CST-1368DR,4274,4766,11836,01.109,552
2023-06-29T07:31:18,42.805,6.029,CST-1368DR,4274,4768,11840,01.107,552
2023-06-29T07:34:19,42.805,6.029,CST-1368DR,4274,4768,11840,01.107,552
2023-06-29T07:37:21,42.805,6.029,CST-1368DR,4274,4766,11835,01.109,552
2023-06-29T07:40:22,42.805,6.029,CST-1368DR,4274,4766,11835,01.109,552
2023-06-29T07:43:24,42.805,6.029,CST-1368DR,4274,4766,11836,01.109,552
2023-06-29T07:46:26,42.805,6.029,CST-1368DR,4274,4767,11838,01.108,552
2023-06-29T07:49:27,42.805,6.029,CST-1368DR,4274,4767,11838,01.108,552
2023-06-29T07:52:29,42.805,6.029,CST-1368DR,4274,4766,11836,01.109,552
2023-06-29T07:55:30,42.805,6.029,CST-1368DR,4274,4767,11837,01.108,552
2023-06-29T07:58:32,42.805,6.029,CST-1368DR,4274,4767,11837,01.108,552
2023-06-29T08:01:33,42.805,6.029,CST-1368DR,4274,4767,11839,01.108,552
2023-06-29T08:04:35,42.805,6.029,CST-1368DR,4274,4767,11838,01.108,552
2023-06-29T08:07:37,42.805,6.029,CST-1368DR,4274,4767,11837,01.108,552
2023-06-29T08:10:38,42.805,6.029,CST-1368DR,4274,4767,11837,01.108,552
2023-06-29T08:13:40,42.805,6.029,CST-1368DR,4274,4768,11840,01.107,552
2023-06-29T08:16:41,42.805,6.029,CST-1368DR,4274,4767,11837,01.108,552
2023-06-29T08:19:43,42.805,6.029,CST-1368DR,4274,4767,11839,01.108,552
2023-06-29T08:22:44,42.805,6.029,CST-1368DR,4274,4767,11839,01.108,552
2023-06-29T08:25:46,42.805,6.029,CST-1368DR,4274,4768,11840,01.107,552
2023-06-29T08:28:48,42.805,6.029,CST-1368DR,4274,4766,11836,01.109,552
2023-06-29T08:31:50,42.805,6.029,CST-1368DR,4274,4767,11837,01.108,552
2023-06-29T08:34:52,42.805,6.029,CST-1368DR,4274,4768,11840,01.107,552
2023-06-29T08:37:53,42.805,6.029,CST-1368DR,4274,4767,11839,01.108,552
2023-06-29T08:40:55,42.805,6.029,CST-1368DR,4274,4766,11836,01.109,552
2023-06-29T08:43:56,42.805,6.029,CST-1368DR,4274,4766,11837,01.108,552
2023-06-29T08:46:58,42.805,6.029,CST-1368DR,4274,4766,11835,01.109,552
2023-06-29T08:49:59,42.805,6.029,CST-1368DR,4274,4768,11841,01.107,552
2023-06-29T08:53:01,42.805,6.029,CST-1368DR,4274,4766,11835,01.109,552
2023-06-29T08:56:03,42.805,6.029,CST-1368DR,4274,4767,11838,01.108,552
2023-06-29T08:59:04,42.805,6.029,CST-1368DR,4274,4768,11840,01.107,552
2023-06-29T09:02:06,42.805,6.029,CST-1368DR,4274,4769,11843,01.106,552
2023-06-29T09:05:07,42.805,6.029,CST-1368DR,4274,4767,11837,01.108,552
2023-06-29T09:08:09,42.805,6.029,CST-1368DR,4274,4768,11841,01.107,552
2023-06-29T09:11:10,42.805,6.029,CST-1368DR,4274,4767,11838,01.108,552
2023-06-29T09:14:12,42.805,6.029,CST-1368DR,4274,4767,11837,01.108,552
2023-06-29T09:17:14,42.805,6.029,CST-1368DR,4274,4766,11835,01.109,552
2023-06-29T09:20:15,42.805,6.029,CST-1368DR,4274,4768,11841,01.107,552
2023-06-29T09:23:17,42.805,6.029,CST-1368DR,4274,4768,11840,01.107,552
2023-06-29T09:26:18,42.805,6.029,CST-1368DR,4274,4765,11833,01.110,552
2023-06-29T09:29:20,42.805,6.029,CST-1368DR,4274,4767,11838,01.108,552
2023-06-29T09:32:22,42.805,6.029,CST-1368DR,4274,4767,11838,01.108,552
2023-06-29T09:35:23,42.805,6.029,CST-1368DR,4274,4766,11835,01.109,552
2023-06-29T09:38:25,42.805,6.029,CST-1368DR,4274,4767,11837,01.108,552
2023-06-29T09:41:26,42.805,6.029,CST-1368DR,4274,4768,11840,01.107,552
2023-06-29T09:44:28,42.805,6.029,CST-1368DR,4274,4768,11840,01.107,552
2023-06-29T09:47:29,42.805,6.029,CST-1368DR,4274,4766,11835,01.109,552
2023-06-29T09:50:31,42.805,6.029,CST-1368DR,4274,4768,11840,01.107,552
2023-06-29T09:53:33,42.805,6.029,CST-1368DR,4274,4768,11841,01.107,552
2023-06-29T09:56:34,42.805,6.029,CST-1368DR,4274,4766,11835,01.109,552
2023-06-29T09:59:36,42.805,6.029,CST-1368DR,4274,4766,11836,01.109,552
2023-06-29T10:02:37,42.805,6.029,CST-1368DR,4274,4768,11840,01.107,552
2023-06-29T10:05:39,42.805,6.029,CST-1368DR,4274,4767,11838,01.108,552
2023-06-29T10:08:40,42.805,6.029,CST-1368DR,4274,4767,11839,01.108,552
2023-06-29T10:11:42,42.805,6.029,CST-1368DR,4274,4766,11836,01.109,552
2023-06-29T10:14:44,42.805,6.029,CST-1368DR,4274,4768,11840,01.107,552
2023-06-29T10:17:45,42.805,6.029,CST-1368DR,4274,4767,11837,01.108,552
2023-06-29T10:20:47,42.805,6.029,CST-1368DR,4274,4766,11836,01.109,552
2023-06-29T10:23:48,42.805,6.029,CST-1368DR,4274,4766,11837,01.108,552
2023-06-29T10:26:50,42.805,6.029,CST-1368DR,4274,4766,11835,01.109,552
2023-06-29T10:29:52,42.805,6.029,CST-1368DR,4274,4765,11833,01.110,552
2023-06-29T10:32:53,42.805,6.029,CST-1368DR,4274,4764,11830,01.111,552
2023-06-29T10:35:54,42.805,6.029,CST-1368DR,4274,4765,11834,01.109,552
2023-06-29T10:38:56,42.805,6.029,CST-1368DR,4274,4764,11830,01.111,552
2023-06-29T10:41:57,42.805,6.029,CST-1368DR,4274,4763,11829,01.111,552
2023-06-29T10:44:59,42.805,6.029,CST-1368DR,4274,4764,11830,01.111,552
2023-06-29T10:48:01,42.805,6.029,CST-1368DR,4274,4764,11831,01.110,552
2023-06-29T10:51:02,42.805,6.029,CST-1368DR,4274,4764,11831,01.110,552
2023-06-29T10:54:04,42.805,6.029,CST-1368DR,4274,4764,11830,01.111,552
2023-06-29T10:57:05,42.805,6.029,CST-1368DR,4274,4766,11835,01.109,552
2023-06-29T11:00:07,42.805,6.029,CST-1368DR,4274,4764,11832,01.110,552
2023-06-29T11:03:09,42.805,6.029,CST-1368DR,4274,4764,11832,01.110,552
2023-06-29T11:06:10,42.805,6.029,CST-1368DR,4274,4764,11832,01.110,552
2023-06-29T11:09:12,42.805,6.029,CST-1368DR,4274,4763,11829,01.111,552
2023-06-29T11:12:13,42.805,6.029,CST-1368DR,4274,4764,11830,01.111,552
2023-06-29T11:15:15,42.805,6.029,CST-1368DR,4274,4764,11830,01.111,552
2023-06-29T11:18:16,42.805,6.029,CST-1368DR,4274,4765,11832,01.110,552
2023-06-29T11:21:18,42.805,6.029,CST-1368DR,4274,4764,11830,01.111,552
2023-06-29T11:24:20,42.805,6.029,CST-1368DR,4274,4763,11829,01.111,552
2023-06-29T11:27:21,42.805,6.029,CST-1368DR,4274,4763,11829,01.111,552
2023-06-29T11:30:23,42.805,6.029,CST-1368DR,4274,4765,11832,01.110,552
2023-06-29T11:33:24,42.805,6.029,CST-1368DR,4274,4765,11832,01.110,552
2023-06-29T11:36:26,42.805,6.029,CST-1368DR,4274,4765,11832,01.110,552
2023-06-29T11:39:27,42.805,6.029,CST-1368DR,4274,4764,11832,01.110,552
2023-06-29T11:42:29,42.805,6.029,CST-1368DR,4274,4763,11829,01.111,552
2023-06-29T11:45:31,42.805,6.029,CST-1368DR,4274,4764,11830,01.111,552
2023-06-29T11:48:32,42.805,6.029,CST-1368DR,4274,4762,11825,01.112,552
2023-06-29T11:51:34,42.805,6.029,CST-1368DR,4274,4764,11830,01.111,552
2023-06-29T11:54:35,42.805,6.029,CST-1368DR,4274,4764,11832,01.110,552
2023-06-29T11:57:37,42.805,6.029,CST-1368DR,4274,4765,11832,01.110,552
2023-06-29T12:00:39,42.805,6.029,CST-1368DR,4274,4764,11831,01.110,552
2023-06-29T12:03:40,42.805,6.029,CST-1368DR,4274,4763,11829,01.111,552
2023-06-29T12:06:42,42.805,6.029,CST-1368DR,4274,4763,11829,01.111,552
2023-06-29T12:09:43,42.805,6.029,CST-1368DR,4274,4765,11832,01.110,552
2023-06-29T12:12:45,42.805,6.029,CST-1368DR,4274,4764,11830,01.111,552
2023-06-29T12:15:46,42.805,6.029,CST-1368DR,4274,4762,11827,01.112,552
2023-06-29T12:18:48,42.805,6.029,CST-1368DR,4274,4763,11829,01.111,552
2023-06-29T12:21:50,42.805,6.029,CST-1368DR,4274,4763,11829,01.111,552
2023-06-29T12:24:51,42.805,6.029,CST-1368DR,4274,4763,11829,01.111,552
2023-06-29T12:27:53,42.805,6.029,CST-1368DR,4274,4763,11829,01.111,552
2023-06-29T12:30:55,42.805,6.029,CST-1368DR,4274,4763,11829,01.111,552
2023-06-29T12:33:57,42.805,6.029,CST-1368DR,4274,4764,11830,01.111,552
2023-06-29T12:36:58,42.805,6.029,CST-1368DR,4274,4763,11829,01.111,552
2023-06-29T12:40:00,42.805,6.029,CST-1368DR,4274,4764,11830,01.111,552
2023-06-29T12:43:02,42.805,6.029,CST-1368DR,4274,4764,11830,01.111,552
2023-06-29T12:46:03,42.805,6.029,CST-1368DR,4274,4763,11828,01.111,552
2023-06-29T12:49:05,42.805,6.029,CST-1368DR,4274,4764,11832,01.110,552
2023-06-29T12:52:06,42.805,6.029,CST-1368DR,4274,4763,11829,01.111,552
2023-06-29T12:55:08,42.805,6.029,CST-1368DR,4274,4765,11834,01.109,552
2023-06-29T12:58:10,42.805,6.029,CST-1368DR,4274,4764,11832,01.110,552
2023-06-29T13:01:11,42.805,6.029,CST-1368DR,4274,4763,11829,01.111,552
2023-06-29T13:04:13,42.805,6.029,CST-1368DR,4274,4764,11830,01.111,552
2023-06-29T13:07:14,42.805,6.029,CST-1368DR,4274,4765,11832,01.110,552
2023-06-29T13:10:16,42.805,6.029,CST-1368DR,4274,4764,11830,01.111,552
2023-06-29T13:13:17,42.805,6.029,CST-1368DR,4274,4764,11832,01.110,552
2023-06-29T13:16:19,42.805,6.029,CST-1368DR,4274,4764,11830,01.111,552
2023-06-29T13:19:21,42.805,6.029,CST-1368DR,4274,4764,11830,01.111,552
2023-06-29T13:22:22,42.805,6.029,CST-1368DR,4274,4763,11827,01.112,552
2023-06-29T13:25:24,42.805,6.029,CST-1368DR,4274,4763,11828,01.111,552
2023-06-29T13:28:25,42.805,6.029,CST-1368DR,4274,4763,11827,01.112,552
2023-06-29T13:31:27,42.805,6.029,CST-1368DR,4274,4763,11828,01.111,552
2023-06-29T13:34:28,42.805,6.029,CST-1368DR,4274,4763,11829,01.111,552
2023-06-29T13:37:30,42.805,6.029,CST-1368DR,4274,4763,11827,01.112,552
2023-06-29T13:40:32,42.805,6.029,CST-1368DR,4274,4764,11831,01.110,552
2023-06-29T13:43:33,42.805,6.029,CST-1368DR,4274,4763,11829,01.111,552
2023-06-29T13:46:35,42.805,6.029,CST-1368DR,4274,4763,11827,01.112,552
2023-06-29T13:49:36,42.805,6.029,CST-1368DR,4274,4763,11829,01.111,552
2023-06-29T13:52:38,42.805,6.029,CST-1368DR,4274,4763,11828,01.111,552
2023-06-29T13:55:40,42.805,6.029,CST-1368DR,4274,4763,11827,01.112,552
2023-06-29T13:58:41,42.805,6.029,CST-1368DR,4274,4763,11829,01.111,552
2023-06-29T14:01:43,42.805,6.029,CST-1368DR,4274,4763,11828,01.111,552
2023-06-29T14:04:44,42.805,6.029,CST-1368DR,4274,4764,11831,01.110,552
2023-06-29T14:07:46,42.805,6.029,CST-1368DR,4274,4765,11833,01.110,552
2023-06-29T14:10:47,42.805,6.029,CST-1368DR,4274,4764,11832,01.110,552
2023-06-29T14:13:49,42.805,6.029,CST-1368DR,4274,4765,11832,01.110,552
2023-06-29T14:16:51,42.805,6.029,CST-1368DR,4274,4763,11829,01.111,552
2023-06-29T14:19:52,42.805,6.029,CST-1368DR,4274,4764,11831,01.110,552
2023-06-29T14:22:54,42.805,6.029,CST-1368DR,4274,4763,11829,01.111,552
2023-06-29T14:25:55,42.805,6.029,CST-1368DR,4274,4765,11832,01.110,552
2023-06-29T14:28:57,42.805,6.029,CST-1368DR,4274,4761,11823,01.113,552
2023-06-29T14:31:58,42.805,6.029,CST-1368DR,4274,4764,11831,01.110,552
2023-06-29T14:35:00,42.805,6.029,CST-1368DR,4274,4764,11831,01.110,552
2023-06-29T14:38:02,42.805,6.029,CST-1368DR,4274,4764,11830,01.111,552
2023-06-29T14:41:03,42.805,6.029,CST-1368DR,4274,4764,11830,01.111,552
2023-06-29T14:44:05,42.805,6.029,CST-1368DR,4274,4764,11832,01.110,552
2023-06-29T14:47:06,42.805,6.029,CST-1368DR,4274,4764,11830,01.111,552
2023-06-29T14:50:08,42.805,6.029,CST-1368DR,4274,4764,11830,01.111,552
2023-06-29T14:53:10,42.805,6.029,CST-1368DR,4274,4764,11830,01.111,552
2023-06-29T14:56:11,42.805,6.029,CST-1368DR,4274,4764,11830,01.111,552
2023-06-29T14:59:13,42.805,6.029,CST-1368DR,4274,4764,11830,01.111,552
2023-06-29T15:02:14,42.805,6.029,CST-1368DR,4274,4765,11832,01.110,552
2023-06-29T15:05:16,42.805,6.029,CST-1368DR,4274,4764,11831,01.110,552
2023-06-29T15:08:17,42.805,6.029,CST-1368DR,4274,4765,11833,01.110,552
2023-06-29T15:11:19,42.805,6.029,CST-1368DR,4274,4764,11832,01.110,552
2023-06-29T15:14:21,42.805,6.029,CST-1368DR,4274,4763,11829,01.111,552
2023-06-29T15:17:22,42.805,6.029,CST-1368DR,4274,4764,11830,01.111,552
2023-06-29T15:20:24,42.805,6.029,CST-1368DR,4274,4764,11830,01.111,552
2023-06-29T15:23:25,42.805,6.029,CST-1368DR,4274,4764,11830,01.111,552
2023-06-29T15:26:27,42.805,6.029,CST-1368DR,4274,4765,11832,01.110,552
2023-06-29T15:29:28,42.805,6.029,CST-1368DR,4274,4764,11830,01.111,552
2023-06-29T15:32:30,42.805,6.029,CST-1368DR,4274,4765,11832,01.110,552
2023-06-29T15:35:32,42.805,6.029,CST-1368DR,4274,4764,11831,01.110,552
2023-06-29T15:38:33,42.805,6.029,CST-1368DR,4274,4765,11832,01.110,552
2023-06-29T15:41:35,42.805,6.029,CST-1368DR,4274,4764,11830,01.111,552
2023-06-29T15:44:36,42.805,6.029,CST-1368DR,4274,4764,11830,01.111,552
2023-06-29T15:47:38,42.805,6.029,CST-1368DR,4274,4764,11832,01.110,552
2023-06-29T15:50:40,42.805,6.029,CST-1368DR,4274,4765,11832,01.110,552
2023-06-29T15:53:41,42.805,6.029,CST-1368DR,4274,4764,11831,01.110,552
2023-06-29T15:56:43,42.805,6.029,CST-1368DR,4274,4764,11830,01.111,552
2023-06-29T15:59:44,42.805,6.029,CST-1368DR,4274,4764,11830,01.111,552
2023-06-29T16:02:46,42.805,6.029,CST-1368DR,4274,4765,11832,01.110,552
2023-06-29T16:05:47,42.805,6.029,CST-1368DR,4274,4765,11832,01.110,552
2023-06-29T16:08:49,42.805,6.029,CST-1368DR,4274,4764,11831,01.110,552
2023-06-29T16:11:51,42.805,6.029,CST-1368DR,4274,4764,11830,01.111,552
2023-06-29T16:14:52,42.805,6.029,CST-1368DR,4274,4765,11832,01.110,552
2023-06-29T16:17:54,42.805,6.029,CST-1368DR,4274,4764,11831,01.110,552
2023-06-29T16:20:55,42.805,6.029,CST-1368DR,4274,4765,11834,01.109,552
2023-06-29T16:23:57,42.805,6.029,CST-1368DR,4274,4765,11834,01.109,552
2023-06-29T16:26:58,42.805,6.029,CST-1368DR,4274,4766,11835,01.109,552
2023-06-29T16:30:00,42.805,6.029,CST-1368DR,4274,4763,11829,01.111,552
2023-06-29T16:33:02,42.805,6.029,CST-1368DR,4274,4764,11831,01.110,552
2023-06-29T16:36:04,42.805,6.029,CST-1368DR,4274,4764,11831,01.110,552
2023-06-29T16:39:05,42.805,6.029,CST-1368DR,4274,4765,11833,01.110,552
2023-06-29T16:42:07,42.805,6.029,CST-1368DR,4274,4765,11832,01.110,552
2023-06-29T16:45:08,42.805,6.029,CST-1368DR,4274,4764,11830,01.111,552